COSMOS 2058 (20465 NORAD) Tracking and Keplerian Element Data

This shows tracking and keplerian element data for the satellite.

Feedback or suggestion? Click here.




ElementValue
Catalog20465
NameCOSMOS 2058
Epoch Orbit84490
Epoch Day13.16827724
Epoch Year2024
RAAN95.639
Inclination82.4876
Eccentricity0.0015439
Argument of Perigee114.6757
Mean Anonmoly245.6077
Mean Motion15.02035495
Decay Rate5.548E-05
L11 20465U 90010A 24013.16827724 .00005548 00000+0 41999-3 0 9990
L22 20465 82.4876 95.6390 0015439 114.6757 245.6077 15.02035495844909



Live tracking and technical data element details for COSMOS 2058 (NORAD 20465). COSMOS 2058 can be tracked NOW for your location showing map with azimuth and elevation plus other details from your city location.







IsCatalogInMostPopularTable: catalog: 20465, numindb: 511
Update: records affected: 1



GetName: 20465 COSMOS 2058

Hit Count: updated at: Mon, 15 Apr 2024 00:11:03 GMT